PTINT SBJD-SBJD

Flight info

Callsign PTINT
Flight time 0h 25m
Altitude 3800
Route DCT
Aircraft C172/L-V/C

Departure

Time 2026-04-18 18:06
Airport Comte. Rolim Adolfo Amaro–Jundiaí State Airport (SBJD)

Arrival

Time 2026-04-18 18:31
Airport Comte. Rolim Adolfo Amaro–Jundiaí State Airport (SBJD)
Time Latitude Longitude Altitude Speed Heading
2026-04-18 17:57 -23.18396 -46.94358 2489 ft 0 kts 337°
2026-04-18 18:02 -23.18376 -46.94344 2487 ft 10 kts 81°
2026-04-18 18:02 -23.18336 -46.94237 2481 ft 10 kts 127°
2026-04-18 18:02 -23.18396 -46.94151 2479 ft 13 kts 140°
2026-04-18 18:03 -23.18538 -46.94080 2486 ft 0 kts 156°
2026-04-18 18:04 -23.18540 -46.94079 2486 ft 1 kts 155°
2026-04-18 18:04 -23.18646 -46.94112 2493 ft 11 kts 272°
2026-04-18 18:05 -23.18201 -46.94337 2480 ft 78 kts 336°
2026-04-18 18:05 -23.17655 -46.94562 2622 ft 84 kts 340°
2026-04-18 18:05 -23.17114 -46.94773 2825 ft 82 kts 339°
2026-04-18 18:06 -23.16063 -46.95060 3236 ft 75 kts 20°
2026-04-18 18:06 -23.15714 -46.94638 3396 ft 77 kts 63°
2026-04-18 18:06 -23.15466 -46.94063 3577 ft 78 kts 64°
2026-04-18 18:07 -23.15517 -46.93453 3740 ft 80 kts 133°
2026-04-18 18:07 -23.16056 -46.93074 3814 ft 87 kts 159°
2026-04-18 18:07 -23.17270 -46.92552 3845 ft 81 kts 158°
2026-04-18 18:08 -23.17855 -46.92311 3845 ft 82 kts 158°
2026-04-18 18:08 -23.18413 -46.92062 3803 ft 79 kts 157°
2026-04-18 18:08 -23.18980 -46.91807 3707 ft 78 kts 155°
2026-04-18 18:08 -23.19561 -46.91681 3622 ft 76 kts 193°
2026-04-18 18:09 -23.20021 -46.92078 3500 ft 78 kts 242°
2026-04-18 18:09 -23.20224 -46.92643 3350 ft 77 kts 251°
2026-04-18 18:09 -23.20209 -46.93254 3168 ft 78 kts 305°
2026-04-18 18:09 -23.19754 -46.93576 2969 ft 78 kts 332°
2026-04-18 18:10 -23.19275 -46.93832 2777 ft 76 kts 336°
2026-04-18 18:10 -23.18789 -46.94069 2578 ft 76 kts 335°
2026-04-18 18:10 -23.18329 -46.94270 2486 ft 61 kts 330°
2026-04-18 18:10 -23.17967 -46.94464 2507 ft 62 kts 335°
2026-04-18 18:11 -23.17518 -46.94645 2600 ft 72 kts 340°
2026-04-18 18:11 -23.17053 -46.94810 2781 ft 69 kts 344°
2026-04-18 18:11 -23.16578 -46.94956 2907 ft 76 kts 342°
2026-04-18 18:11 -23.16067 -46.95106 3108 ft 73 kts
2026-04-18 18:12 -23.15683 -46.94826 3291 ft 69 kts 63°
2026-04-18 18:12 -23.15451 -46.94274 3417 ft 78 kts 64°
2026-04-18 18:12 -23.15414 -46.93678 3598 ft 78 kts 125°
2026-04-18 18:12 -23.15933 -46.93317 3725 ft 83 kts 162°
2026-04-18 18:13 -23.16544 -46.93104 3812 ft 83 kts 165°
2026-04-18 18:13 -23.17161 -46.92893 3859 ft 81 kts 158°
2026-04-18 18:13 -23.17749 -46.92631 3867 ft 83 kts 153°
2026-04-18 18:13 -23.18318 -46.92344 3860 ft 80 kts 155°
2026-04-18 18:14 -23.18874 -46.92071 3767 ft 79 kts 155°
2026-04-18 18:14 -23.19458 -46.91833 3670 ft 78 kts 163°
2026-04-18 18:14 -23.20059 -46.91779 3554 ft 79 kts 202°
2026-04-18 18:14 -23.20428 -46.92262 3439 ft 79 kts 250°
2026-04-18 18:15 -23.20590 -46.92872 3267 ft 77 kts 274°
2026-04-18 18:15 -23.20275 -46.93348 3066 ft 80 kts 332°
2026-04-18 18:15 -23.19779 -46.93604 2881 ft 75 kts 336°
2026-04-18 18:15 -23.19311 -46.93828 2727 ft 70 kts 337°
2026-04-18 18:16 -23.18867 -46.94029 2570 ft 67 kts 336°
2026-04-18 18:16 -23.18470 -46.94212 2488 ft 51 kts 337°
2026-04-18 18:16 -23.18133 -46.94369 2471 ft 68 kts 337°
2026-04-18 18:16 -23.17631 -46.94596 2602 ft 78 kts 341°
2026-04-18 18:17 -23.17125 -46.94786 2813 ft 76 kts 343°
2026-04-18 18:17 -23.16611 -46.94953 2995 ft 77 kts 341°
2026-04-18 18:17 -23.16100 -46.95085 3188 ft 75 kts
2026-04-18 18:17 -23.15638 -46.94759 3349 ft 79 kts 58°
2026-04-18 18:18 -23.15415 -46.94169 3564 ft 76 kts 72°
2026-04-18 18:18 -23.15395 -46.93574 3736 ft 76 kts 122°
2026-04-18 18:18 -23.15886 -46.93222 3868 ft 80 kts 160°
2026-04-18 18:18 -23.16474 -46.92979 3878 ft 85 kts 157°
2026-04-18 18:19 -23.17069 -46.92715 3887 ft 87 kts 160°
2026-04-18 18:19 -23.17600 -46.92306 3898 ft 87 kts 121°
2026-04-18 18:19 -23.17665 -46.91607 3888 ft 89 kts 69°
2026-04-18 18:19 -23.17240 -46.91127 3868 ft 92 kts 22°
2026-04-18 18:20 -23.16623 -46.91100 3872 ft 90 kts 339°
2026-04-18 18:20 -23.16193 -46.91576 3866 ft 90 kts 289°
2026-04-18 18:20 -23.16252 -46.92257 3863 ft 89 kts 240°
2026-04-18 18:20 -23.16773 -46.92664 3861 ft 88 kts 191°
2026-04-18 18:21 -23.17447 -46.92543 3862 ft 88 kts 158°
2026-04-18 18:21 -23.18058 -46.92240 3852 ft 84 kts 153°
2026-04-18 18:21 -23.18597 -46.91953 3803 ft 78 kts 153°
2026-04-18 18:21 -23.19144 -46.91673 3705 ft 80 kts 156°
2026-04-18 18:22 -23.19754 -46.91610 3598 ft 81 kts 204°
2026-04-18 18:22 -23.20169 -46.92112 3420 ft 84 kts 242°
2026-04-18 18:22 -23.20413 -46.92715 3260 ft 83 kts 251°
2026-04-18 18:22 -23.20333 -46.93318 3078 ft 81 kts 313°
2026-04-18 18:23 -23.19823 -46.93596 2881 ft 77 kts 340°
2026-04-18 18:23 -23.19324 -46.93821 2718 ft 71 kts 338°
2026-04-18 18:23 -23.18875 -46.94023 2568 ft 68 kts 336°
2026-04-18 18:23 -23.18461 -46.94217 2488 ft 55 kts 338°
2026-04-18 18:24 -23.18121 -46.94375 2470 ft 59 kts 337°
2026-04-18 18:24 -23.17635 -46.94595 2536 ft 82 kts 338°
2026-04-18 18:24 -23.17106 -46.94832 2744 ft 80 kts 339°
2026-04-18 18:24 -23.16587 -46.95029 2952 ft 77 kts 341°
2026-04-18 18:25 -23.16060 -46.95176 3146 ft 76 kts
2026-04-18 18:25 -23.15595 -46.94901 3324 ft 77 kts 56°
2026-04-18 18:25 -23.15359 -46.94314 3512 ft 78 kts 71°
2026-04-18 18:25 -23.15340 -46.93681 3704 ft 77 kts 123°
2026-04-18 18:26 -23.15833 -46.93329 3830 ft 85 kts 164°
2026-04-18 18:26 -23.16481 -46.93099 3852 ft 91 kts 161°
2026-04-18 18:26 -23.17123 -46.92819 3871 ft 89 kts 156°
2026-04-18 18:26 -23.17670 -46.92395 3873 ft 88 kts 121°
2026-04-18 18:27 -23.17737 -46.91667 3857 ft 90 kts 69°
2026-04-18 18:27 -23.17277 -46.91160 3838 ft 91 kts 20°
2026-04-18 18:27 -23.16632 -46.91179 3847 ft 89 kts 334°
2026-04-18 18:27 -23.16213 -46.91679 3855 ft 87 kts 287°
2026-04-18 18:28 -23.16290 -46.92387 3847 ft 88 kts 238°
2026-04-18 18:28 -23.16804 -46.92785 3857 ft 87 kts 191°
2026-04-18 18:28 -23.17465 -46.92654 3868 ft 86 kts 158°
2026-04-18 18:28 -23.18083 -46.92368 3861 ft 84 kts 159°
2026-04-18 18:29 -23.18675 -46.92108 3777 ft 81 kts 158°
2026-04-18 18:29 -23.19260 -46.91859 3668 ft 81 kts 165°
2026-04-18 18:29 -23.19879 -46.91996 3522 ft 84 kts 219°
2026-04-18 18:29 -23.20210 -46.92560 3347 ft 83 kts 248°
2026-04-18 18:30 -23.20394 -46.93195 3196 ft 79 kts 276°
2026-04-18 18:30 -23.20058 -46.93630 3030 ft 77 kts 344°
2026-04-18 18:30 -23.19534 -46.93742 2830 ft 76 kts 347°
2026-04-18 18:30 -23.19051 -46.93945 2661 ft 72 kts 336°
2026-04-18 18:31 -23.18599 -46.94154 2502 ft 67 kts 336°
2026-04-18 18:31 -23.18226 -46.94328 2478 ft 45 kts 341°
2026-04-18 18:31 -23.17957 -46.94448 2459 ft 37 kts 338°
2026-04-18 18:31 -23.17724 -46.94558 2445 ft 33 kts 338°
2026-04-18 18:32 -23.17559 -46.94634 2432 ft 11 kts 335°
2026-04-18 18:32 -23.17485 -46.94617 2428 ft 12 kts 79°
2026-04-18 18:32 -23.17484 -46.94603 2428 ft 0 kts 90°
2026-04-18 18:32 -23.17485 -46.94596 2428 ft 3 kts 104°
2026-04-18 18:33 -23.17523 -46.94550 2427 ft 10 kts 158°
2026-04-18 18:33 -23.17603 -46.94514 2431 ft 10 kts 161°
2026-04-18 18:33 -23.17665 -46.94486 2436 ft 7 kts 156°
2026-04-18 18:33 -23.17721 -46.94461 2440 ft 10 kts 157°
2026-04-18 18:34 -23.17818 -46.94416 2449 ft 15 kts 157°
2026-04-18 18:34 -23.17901 -46.94378 2456 ft 13 kts 155°
2026-04-18 18:34 -23.18013 -46.94323 2465 ft 18 kts 155°
2026-04-18 18:34 -23.18125 -46.94271 2471 ft 12 kts 158°
2026-04-18 18:35 -23.18208 -46.94234 2474 ft 10 kts 156°
2026-04-18 18:35 -23.18283 -46.94199 2476 ft 9 kts 158°
2026-04-18 18:35 -23.18349 -46.94167 2478 ft 8 kts 162°
2026-04-18 18:35 -23.18366 -46.94195 2480 ft 5 kts 303°
2026-04-18 18:36 -23.18335 -46.94242 2481 ft 10 kts 304°
2026-04-18 18:36 -23.18365 -46.94309 2485 ft 9 kts 248°
2026-04-18 18:36 -23.18393 -46.94359 2489 ft 5 kts 167°
2026-04-18 18:36 -23.18399 -46.94356 2489 ft 0 kts 158°